Regional Weather Roundup
Issued by NWS

Home | Current Version | Previous Version | Text Only | Print | Product List | Glossary On
Versions: 1 2 3 4 5 6 7 8 9 10 11 12 13 14 15 16 17 18 19 20 21 22 23 24 25 26 27 28 29 30 31 32 33 34 35 36 37 38 39 40 41 42 43 44 45 46 47 48 49 50
000
ASUS42 KKEY 280110
RWRKEY

FLORIDA REGIONAL WEATHER ROUNDUP FOR THE FLORIDA KEYS
NATIONAL WEATHER SERVICE KEY WEST FLORIDA
800 PM EST TUE JAN 27 2015

...SOUTH FLORIDA AND THE KEYS...

CITY           SKY/WX    TMP DP  RH WIND       PRES   REMARKS
FORT MYERS     PTCLDY    63  55  75 W8        30.01S
SW REGIONAL AP MOCLDY    62  53  72 W5        30.02R
NAPLES         MOCLDY    66  56  70 W13G20    30.02S
MIAMI          CLEAR     62  51  67 W7        30.04R
WEST KENDALL   CLEAR     59  52  77 W9        30.04R
HOMESTEAD      CLEAR     60  52  73 W10       30.04R
MARATHON       CLEAR     64  57  78 W6        30.06R
BOCA CHICA NAS CLEAR     67  54  63 NW14      30.07R
KEY WEST INTL  CLEAR     67  56  67 NW12      30.07R

...INTERNATIONAL WEATHER...

CITY           SKY/WX    TMP DP  RH WIND       PRES   REMARKS
NASSAU BAHAMAS   N/A    N/A N/A N/A W6        30.03
CANCUN MEXICO  PTCLDY    66  59  77 N3        30.12R
COZUMEL MEXICO PTCLDY    68  57  68 N9        30.12R

ADJACENT COASTAL WATERS...

STATION/POSITION TIME  SKY/WX   TEMP    WIND        PRES    WAVE
                                AIR SEA DIR/SP/G            HT/PER
                 (UTC)          (F)     (DEG/KT/KT) (MB)    (FT/S)
PULASKI SHOAL LI NOT AVBL
SAND KEY         NOT AVBL
SOMBRERO KEY     NOT AVBL
LONG KEY         NOT AVBL
MOLASSES REEF    NOT AVBL
FOWEY ROCKS      NOT AVBL
Buoy 42080       NOT AVBL

$$



USA.gov is the U.S. government's official web portal to all federal, state and local government web resources and services.